Regional Weather Roundup
Issued by NWS

Home | Current Version | Previous Version | Graphics & Text | Print | Product List | Glossary On
Versions: 1 2 3 4 5 6 7 8 9 10 11 12 13 14 15 16 17 18 19 20 21 22 23 24 25 26 27 28 29 30 31 32 33 34 35 36 37 38 39 40 41 42 43 44 45 46 47 48 49 50
789
ASUS45 KCYS 260610
RWRWY

WYOMING REGIONAL WEATHER ROUNDUP
NATIONAL WEATHER SERVICE CHEYENNE WY
1200 AM MDT TUE JUL 26 2016

NOTE:  "FAIR" INDICATES FEW OR NO CLOUDS BELOW 12,000 FEET
WITH NO SIGNIFICANT WEATHER AND/OR OBSTRUCTIONS TO VISIBILITY.

WYZ001-260700-
YELLOWSTONE NATIONAL PARK

CITY           SKY/WX    TMP DP  RH WIND       PRES   REMARKS
LK YELLOWSTONE   N/A     49  32  52 CALM      30.36S
6HR MIN TEMP:  49; 6HR MAX TEMP:  77;

W YELLOWSTONE  NOT AVBL

$$
WYZ002>013-054>058-071-098>099-260700-
NORTHERN WYOMING

CITY           SKY/WX    TMP DP  RH WIND       PRES   REMARKS
JACKSON        FAIR      54  30  40 N8        30.23S
CODY           FAIR      75  41  29 NW9G16    30.16R
GREYBULL       FAIR      77  33  20 W12       29.96S
6HR MIN TEMP:  76; 6HR MAX TEMP:  98;

WORLAND        FAIR      73  28  18 VRB6      29.99S
6HR MIN TEMP:  73; 6HR MAX TEMP:  95;

SHERIDAN       FAIR      68  45  43 SE5       30.00F
6HR MIN TEMP:  66; 6HR MAX TEMP:  98;

BUFFALO        FAIR      73  35  25 W8        30.10S
6HR MIN TEMP:  72; 6HR MAX TEMP:  93;

GILLETTE       FAIR      76  53  44 S9        30.03F
6HR MIN TEMP:  69; 6HR MAX TEMP:  94;

HULETT         FAIR      72  45  37 E5        30.07S
NEWCASTLE      FAIR      79  54  41 SE17G26   30.07F

$$
WYZ014>020-022>026-101>103-260700-
CENTRAL WYOMING

CITY           SKY/WX    TMP DP  RH WIND       PRES   REMARKS
BIG PINEY      FAIR      59  25  27 N10       30.29S
6HR MIN TEMP:  59; 6HR MAX TEMP:  88;

PINEDALE       FAIR      59  28  31 W3        30.30R
DUBOIS         FAIR      61  23  23 W5        30.29S
LANDER         FAIR      75  31  19 W15       30.12R
6HR MIN TEMP:  74; 6HR MAX TEMP:  92;

RIVERTON       FAIR      73  30  20 NW13      30.12S
6HR MIN TEMP:  73; 6HR MAX TEMP:  93; 6HR PCP: TRACE;

CASPER         FAIR      65  42  43 CALM      30.09S
6HR MIN TEMP:  65; 6HR MAX TEMP:  94;

DOUGLAS          N/A    N/A N/A N/A MISG      30.09R

$$
WYZ021-027>030-104>119-260700-
SOUTHERN WYOMING

CITY           SKY/WX    TMP DP  RH WIND       PRES   REMARKS
EVANSTON       FAIR      67  34  29 E3        30.30R
6HR MIN TEMP:  67; 6HR MAX TEMP:  88;

KEMMERER         N/A    N/A N/A N/A NE5       30.30S
FORT BRIDGER   FAIR      63  32  31 W7        30.30S
ROCK SPRINGS   FAIR      71  29  21 S7        30.24F
6HR MIN TEMP:  69; 6HR MAX TEMP:  86;

DIXON          FAIR      62  39  43 NE5       30.28F
RAWLINS        FAIR      67  27  22 CALM      30.25F
6HR MIN TEMP:  66; 6HR MAX TEMP:  90;

SARATOGA       FAIR      66  32  28 S7        30.29F
LARAMIE        FAIR      57  44  62 S9        30.30R
6HR MIN TEMP:  56; 6HR MAX TEMP:  86;

CHEYENNE       FAIR      66  57  72 S8        30.23R
6HR MIN TEMP:  66; 6HR MAX TEMP:  86;

TORRINGTON     FAIR      74  62  66 SE12      30.09R
6HR MIN TEMP:  73; 6HR MAX TEMP:  93;

PINE BLUFFS    FAIR      66  61  82 S12G18    30.18S

$$




USA.gov is the U.S. government's official web portal to all federal, state and local government web resources and services.